Погода Тилрикоя

Погода Тилрикоя : погода сейчас, прогноз погоды и архив. Всё, что Вы хотите узнать о погоде Тилрикоя!

Поиск расширенной информации на нашем сайте:

Полезная информация:

Другие новости

Новости СМИ2

Главная страница сайта

Новости сайта

03.07.2017

Напоминаем, что на нашем специализированном сайте Метеоцентр.Азия вы можете получить высокодетализированные автоматические прогнозы погоды по пунктам России, СНГ и мира в авиационном формате (включающие направление и скорость ветра, видимость, явления погоды, количество и форму облачности, нижнюю и верхнюю границу облачности).

Рекомендуем:

Погода Тилрикоя - сегодня

Время (UTC), дата Ветер
(°,м/с) 
Видим.   Явления Облачность Т
(°С)
Тd
(°С)
f(%) Тe
(°С)
Pmin
(гПа)
dP
(гПа)
Po
(мм)
O2
(г/м3)
Тmin Tmax R s Состояние
почвы
00 19.03.19 //0 (С) //  20000 м    9/0 
[]
+1.7 +0.1 89 +2  1005.9  751  301  +0.2  +6.1       
03 19.03.19 //0 (С) //  20000 м    9/0 
[]
+2.3 +0.1 85 +2  1005.9  751  300  +0.2  +4.7       
06 19.03.19 //0 (С) //  20000 м  ливневой дождь  9/8 570 м 
[]
+2.7 +0.1 83 +3  1007  1.1  752  300  +0.2  +2.8     
09 19.03.19 //0 (С) //  20000 м  ливневой дождь  10/10 420 м 
[]
+3.3 +1.1 85 +3  1008.6  1.6  753  300  +1.4  +3.7       
12 19.03.19 //0 (С) //  20000 м  слаб. дождь  9/9 400 м 
[]
+2.8 +1 88 +3  1010.6  755  301  +1.6  +5.3       
15 19.03.19 //0 (С) //  20000 м  ливневой дождь  9/9 500 м 
[]
+3.1 +2 92 +3  1011.8  1.2  756  301  +2  +5.3  0.6     
18 19.03.19 //0 (С) //  20000 м  в посл. час дождь со снегом  10/10 180 м 
[]
+1.5 +1 96 +2  1013.8  757  303  +1.5  +5.3  0.6     
21 19.03.19 //0 (С) //  4300 м  дымка  10/10 120 м 
[]
+1.8 +1.7 99 +2  1016  2.2  759  304  +1.5  +5.3       
00 20.03.19 //0 (С) //  6000 м  в посл. час дождь{ливн. осадки}  10/10 100 м 
[]
+1.6 +1.3 98 +2  1017.9  1.9  760  304  +1.5  +3.2       
03 20.03.19 //0 (С) //  11000 м    10/10 180 м 
[]
+0.8 +0.2 96 +1  1019.6  1.7  762  306  +0.8  +3.2       
06 20.03.19 //0 (С) //  4200 м  слаб. ливневой снег  10/10 300 м 
[]
-0.2 -1.8 89 -0  1020.7  1.1  762  308  -0.3  +2     
09 20.03.19 //0 (С) //  20000 м  {ливн. осадки}  9/9 450 м 
[]
+1.5 -2.5 75 +2  1021.3  0.6  763  306  -0.3  +1.9       
12 20.03.19 //0 (С) //  20000 м    6/6 960 м 
[]
+4.8 -3 57 +5  1019.7  -1.6  762  302  -0.3  +5.1       
15 20.03.19 //0 (С) //  20000 м    10/0 2000 м 
[]
+4.5 -4.1 54 +5  1017.3  -2.4  760  302  -0.3  +5.7       
18 20.03.19 //0 (С) //  8000 м  переохл. дождь (гололёд){ливн. осадки}  10/10 240 м 
[]
+1.4 +0.6 94 +1  1015.7  -1.6  759  304  -0.2  +5.7  0.5     
21 20.03.19 //0 (С) //  20000 м  в посл. час дождь со снегом  10/10 150 м 
[]
+1.8 +1.1 95 +2  1015.8  -0.1  759  304  +1  +5.7  0.9     
00 21.03.19 //0 (С) //  20000 м    9/9 270 м 
[]
+1.6 +0.6 93 +2  1017.2  1.4  760  304  +1  +5.7       
03 21.03.19 //0 (С) //  20000 м    9/9 180 м 
[]
+1.2 +0.5 95 +1  1017.6  0.4  760  305  +1  +4.5       
06 21.03.19 //0 (С) //  20000 м    ясно 
[]
+2.4 +0.6 88 +2  1018.7  1.1  761  304  +0.8  +2.4     
09 21.03.19 //0 (С) //  20000 м    10/0 
[]
+6.9 +0.6 64 +7  1018.7  761  299  +0.8  +6.9       
12 21.03.19 //0 (С) //  20000 м    ясно 
[]
+9.3 +1.5 58 +9  1017  -1.7  760  296  +0.8  +9.9       
18 21.03.19 //0 (С) //  12000 м    н/о 
+4.6 +4.1 97 +5  1012.7  -2.6  757  299  +2.3  +9.9  0.6     
21 21.03.19 //0 (С) //  14000 м  слаб. дождь  10/10 210 м 
[]
+4.3 +3.8 97 +4  1011.8  -0.9  756  299  +4.3  +9.9     
00 22.03.19 //0 (С) //  20000 м  {ливн. осадки}  10/0 
[]
+3.5 +2 90 +4  1013.1  1.3  757  301  +3.5  +9.5  0.2     
03 22.03.19 //0 (С) //  20000 м    ясно 
[]
+1.5 -3.3 70 +2  1015.9  2.8  759  304  +1.5  +7       
Время (UTC), дата Ветер
(°,м/с) 
Видим.   Явления Облачность Т
(°С)
Тd
(°С)
f(%) Тe
(°С)
Pmin
(гПа)
dP
(гПа)
Po
(мм)
O2
(г/м3)
Тmin Tmax R s Состояние
почвы

Для получения пояснительной информации подведите курсор к названию столбца.

ПОГОДА Тилрикоя - архив

Всё, что Вы хотите узнать о погоде Тилрикоя - удобно и подробно!

Выберите нужную дату (начиная с 1 января 2018* года) и нажмите кнопку "Найти".
Будут отображены архивные сводки погоды по пункту Тилрикоя, начиная с указанной даты.


Отображать данные в формате CSV (для использования в таблицах Excel)


Внимание! Наш архив погоды предназначен исключительно для личного некоммерческого использования в познавательных целях. Если Вам необходимы официальные справки о состоянии погоды (для производственных, юридических, коммерческих и т.п. целей), обращайтесь в органы Росгидромета.

*Примечание: данная дата относится к архиву по метеостанциям СССР (Россия, СНГ, Балтия).
Архив по метеостанциям Зарубежной Европы и Азии (кроме Китая) хранится 10 дней, по другим регионам земного шара (Китай, Африка, Америка, Австралия, Океания) - 1 день.

Тилрикоя - район местоположения метеостанции


Название, широта, долгота, высота метеостанции:
Тилрикоя 58.9°ш. 26.9°д. 34 м над ур. моря [Эстония]

Дополнительная информация

В oтличие oт бoльшинства пoгoдных сайтoв мы публикуем пoдрoбную метеoинфoрмацию в детальнoм прoфессиoнальнoм фoрмате.

Характеристики температуры и влажнoсти вoздуха измеряются на высoте 2 м в тени вдали oт зданий и деревьев.
Скoрoсть ветра измеряется на высoте 10 м (на урoвне рoста челoвека скoрoсть ветра ниже в 1.5-2 раза). Если метеoстанция нахoдится в гoрoде или в лесу, тo скoрoсть ветра занижена на 2-4 м/с пo сравнению с oткрытым местoм. Скoрoсть ветра над акватoриями крупных рек и oзёр, а также на вершинах хoлмoв на 2-5 м/с выше, чем в oбычных услoвиях.
Атмoсфернoе давление в разных тoчках местнoсти мoжет значительнo oтличаться oт давления на метеoстанции, в зависимoсти oт услoвий рельефа (при пoдъёме на 10 м давление пoнижается примернo на 1 мм рт.ст.).